AirNav   Bose Proflight Series 2 Wireless Aviation Headset
 
 941 users online  

KWLW Willows-Glenn County Airport
Willows, California, USA

GOING TO WILLOWS?


FAA INFORMATION EFFECTIVE 07 NOVEMBER 2019

Location

FAA Identifier: WLW
Lat/Long: 39-30-56.7212N 122-13-02.1916W
39-30.945353N 122-13.036527W
39.5157559,-122.2172754
(estimated)
Elevation: 141.2 ft. / 43.0 m (surveyed)
Variation: 14E (2020)
From city: 1 mile W of WILLOWS, CA
Time zone: UTC -8 (UTC -7 during Daylight Saving Time)
Zip code: 95988

Airport Operations

Airport use: Open to the public
Activation date: 04/1940
Control tower: no
ARTCC: OAKLAND CENTER
FSS: RANCHO MURIETA FLIGHT SERVICE STATION
NOTAMs facility: RIU (NOTAM-D service available)
Attendance: 0730-1530
Wind indicator: lighted
Segmented circle: yes
Lights: ACTVT MIRL RY 16/34 & VASI RY 34 - CTAF.
Beacon: white-green (lighted land airport)
Operates sunset to sunrise.

Airport Communications

CTAF/UNICOM: 122.8
  • APCH/DEP SVC PRVDD BY OAKLAND ARTCC ON FREQS 132.2/350.3 (RED BLUFF RCAG).
  • MAXWELL RCO 110.0T 122.1R (RANCHO MURIETA RADIO)

Nearby radio navigation aids

VOR radial/distance  VOR name  Freq  Var
CICr210/23.7CHICO VOR/DME109.8016E
ILAr324/28.1WILLIAMS VORTAC114.4018E
RBLr161/35.0RED BLUFF VORTAC115.7018E
MYVr294/39.0MARYSVILLE VOR/DME110.8016E

Airport Services

Fuel available: 100LL
24HR CARD LOCK
Parking: tiedowns
Bottled oxygen: NONE
Bulk oxygen: NONE

Runway Information

Runway 16/34

Dimensions: 4125 x 100 ft. / 1257 x 30 m
Surface: asphalt, in good condition
Weight bearing capacity: 
Single wheel: 38.0
Double wheel: 53.0
Runway edge lights: medium intensity
RUNWAY 16  RUNWAY 34
Latitude: 39-31.297078N39-30.617973N
Longitude: 122-13.196330W122-13.168878W
Elevation: 141.2 ft.136.2 ft.
Traffic pattern: rightleft
Runway heading: 164 magnetic, 178 true344 magnetic, 358 true
Markings: basic, in good conditionnonprecision, in good condition
Visual slope indicator: 4-box VASI on left (3.00 degrees glide path)
Runway end identifier lights: no
Touchdown point: yes, no lightsyes, no lights
Obstructions: 15 ft. road, 550 ft. from runway, 23:1 slope to clearnone

Runway 13/31

Dimensions: 3788 x 60 ft. / 1155 x 18 m
Surface: asphalt, in fair condition
Weight bearing capacity: 
Single wheel: 12.0
RUNWAY 13  RUNWAY 31
Latitude: 39-31.187660N39-30.676538N
Longitude: 122-13.108402W122-12.646507W
Elevation: 137.7 ft.131.3 ft.
Traffic pattern: rightleft
Runway heading: 131 magnetic, 145 true311 magnetic, 325 true
Displaced threshold: no243 ft.
Markings: basic, in good conditionbasic, in good condition
Runway end identifier lights: nono
Touchdown point: yes, no lightsyes, no lights
Obstructions: 50 ft. trees, 1910 ft. from runway, 100 ft. right of centerline, 34:1 slope to clearnone

Helipad H1

Dimensions: 60 x 60 ft. / 18 x 18 m
Surface: concrete, in good condition
Latitude: 39-31.350833N
Longitude: 122-13.140333W
Elevation: 139.0 ft.
Traffic pattern: leftleft
Markings: basic, in good condition

Airport Ownership and Management from official FAA records

Ownership: Publicly-owned
Owner: COUNTY OF GLENN
525 W SYCAMORE ST., STE B1
WILLOWS, CA 95988
Phone 530-934-6400
Manager: MOHAMMAD QURESHI
PO BOX 1070
WILLOWS, CA 95988
Phone 530-934-6530
COUNTY PUBLIC WORKS DEPUTY DIRECTOR.

Airport Operational Statistics

Aircraft based on the field: 42
Single engine airplanes: 39
Jet airplanes: 1
Helicopters: 2
    
Aircraft operations: avg 81/day *
75% local general aviation
25% transient general aviation
* for 12-month period ending 31 December 2017

Additional Remarks

A58-H1 +8 FT BUSHES 25 FT NE OF HELIPAD.
FOR CD CTC OAKLAND ARTCC AT 510-745-3380.

Instrument Procedures

NOTE: All procedures below are presented as PDF files. If you need a reader for these files, you should download the free Adobe Reader.

NOT FOR NAVIGATION. Please procure official charts for flight.
FAA instrument procedures published for use from 07 November 2019 at 0901Z to 05 December 2019 at 0900Z.

 
IAPs - Instrument Approach Procedures
RNAV (GPS) RWY 34 **CHANGED**   download (184KB)
VOR RWY 34 **CHANGED**   download (159KB)
VOR RWY 34 **CHANGED**   download (159KB)
NOTE: Special Take-Off Minimums/Departure Procedures apply   download (227KB)

Other nearby airports with instrument procedures:

O37 - Haigh Field Airport (13 nm N)
O08 - Colusa County Airport (23 nm SE)
KCIC - Chico Municipal Airport (24 nm NE)
KOVE - Oroville Municipal Airport (28 nm E)
KRBL - Red Bluff Municipal Airport (38 nm N)
 
Loc | Ops | Rwys | IFR | FBO | Links
Com | Nav | Svcs | Stats | Notes
Area around KWLW (Willows-Glenn County Airport)
 
Road maps at: MapQuest Bing Google
 
Aerial photo
WARNING: Photo may not be current or correct
Aerial photo of KWLW (Willows-Glenn County Airport)
Photo Jassen Photography
Photo taken 06-Nov-2015
looking west.

Do you have a better or more recent aerial photo of Willows-Glenn County Airport that you would like to share? If so, please send us your photo.

 
Sectional chart

 
Airport distance calculator
Flying to Willows-Glenn County Airport? Find the distance to fly.

From to KWLW

Sunrise and sunset
Times for 14-Nov-2019
 Local
(UTC-8)
 Zulu
(UTC)
Morning civil twilight06:2414:24
Sunrise06:5314:53
Sunset16:5400:54
Evening civil twilight17:2201:22

Current date and time
Zulu (UTC)  14-Nov-2019 23:37:04
Local (UTC-8)  14-Nov-2019 15:37:04
 
METAR
KCIC 
24nm NE 
142247Z 13011KT 7SM SCT150 20/08 A3003 RMK HZ ALL QUADRANTS
KOVE 
28nm E 
142253Z AUTO 15013KT 8SM CLR 20/08 A3004 RMK AO2 SLP176 T02000078
KO54 
35nm N 
142315Z AUTO 00000KT 10SM CLR 19/00 A3001 RMK AO1
KRBL 
38nm N 
142254Z AUTO 14011KT 10SM CLR 21/08 A3001 RMK AO2 SLP159 T02110078
KMYV 
39nm SE 
142253Z AUTO 15010G18KT 10SM CLR 21/08 A3003 RMK AO2 SLP173 T02060083
KBAB 
43nm SE 
142258Z AUTO 18013KT 8SM BKN160 20/08 A3003 RMK AO2 SLP172 T02020082 $
TAF
KRBL 
38nm N 
141725Z 1418/1518 16006KT P6SM BKN250 FM150600 32004KT P6SM OVC100
KBAB 
43nm SE 
141900Z 1419/1601 14009KT 9999 SCT180 QNH3004INS BECMG 1511/1512 VRB06KT 9999 BKN120 QNH3010INS TEMPO 1512/1516 8000 BR BECMG 1518/1519 VRB06KT 9999 FEW120 QNH3009INS TX22/1420Z TN07/1514Z
NOTAMs
Click for the latest NOTAMs
NOTAMs are issued by the DoD/FAA and will open in a separate window not controlled by AirNav.

 

 
 

FBO, Fuel Providers, and Aircraft Ground Support

  
 Business Name 
 
 Contact 
 
 Services / Description 
 
Fuel Prices
 
Comments
  
Glenn County Airport 530-934-6530
no information available

If you are affiliated with Glenn County Airport and would like to show here your services, contact info, web link, logo, and more, click here
100LL
SS $4.65 
 Updated 08-Nov-2019
 
   4 read write
SS=Self service
Update Fuel Prices
 

Where to Eat: Catering, Restaurants, Food shops

  
 Business Name 
 
 Contact 
 
 Services / Description 
 
Distance
 
Comments
  
Nancy's Airport Cafe 530-934-7211
no information available

If you are affiliated with Nancy's Airport Cafe and would like to show here your services, contact info, web link, logo, and more, click here
on airport  
   3 read write
 

Would you like to see your business listed on this page?

 If your business provides an interesting product or service to pilots, flight crews, aircraft, or users of the Willows-Glenn County Airport, you should consider listing it here.  To start the listing process, click on the button below
 
Add a business
 

Other Pages about Willows-Glenn County Airport

County of Glenn Airports
 
Update a link
 
Copyright © AirNav, LLC. All rights reserved. Privacy Policy  Contact